CZ-6A DEB, 56628

Orbit data source: Space-Track

CZ-6A DEB, 56628 is space debris in SSO originally from a launch on Fri, 11 Nov 2022 UTC launched from the Taiyaun Space Center, China (TSC). Debris objects in space refer to the collection of defunct objects orbiting the Earth. Examples of debris include non-operational satellites, rocket bodies, and fragments generated from explosions, collisions, or faulty payload assembly.

Loading next visibility...
Identifier
56628, 2022-151AFC
Orbit
SSO
Country
Flag of CNCN / PRC
Related business
Manufacturer
SAST
Mission
Spacecraft
Bus & Motor
Unknown
Mass
Unknown
Launch date (UTC)
2022-11-11 (3 years ago)
Launch vehicle
Unknown
Launch site
Taiyaun Space Center, China (TSC)
Object type
Payload
Rocket body
Debris
Shape & HBR
Unknown shape, 0.1 m
Radar Cross Section
Small (<0.1 m²)

Expand to show TLE details & history
Last TLE update: 18 hours ago

TLE from 18 hours ago
0 CZ-6A DEB
1 56628U 22151AFC 25350.20384970  .00000551  00000-0  36035-3 0  9997
2 56628  98.8576 338.8933 0071909 162.0404 198.3329 14.05007726 86755
Epoch: 2025-12-16T04:53Z
TLE epoch observation values (Epoch: 2025-12-16T04:53:32.614Z)
Latitude
Longitude
-179.58402°
Altitude
928.961 km
Speed
7.362 km/s
True Right ascension
22h 35m 34s
True Declination
0° 00' 00"
Sunlit
Object was in daylight at epoch
Visualization orbit readout
Latitude
Unknown
Longitude
Unknown
Altitude
Unknown
Speed
Unknown
Apparent Right ascension
Unknown
Apparent Declination
Unknown
Sunlit
N/A
Visualization observer readout
Local Sidereal Time
21:34:50
Azimuth
Unknown
Elevation
Unknown
Doppler factor
Unknown
Orbital elements
Apogee altitude
925.839 km
Perigee altitude
821.544 km
Semi-major axis
7,251.828 km
Eccentricity
0.00719
Inclination
98.8576°
RAAN
338.8933°
Arg. of periapsis
162.0404°
True anomaly
198.07591°
Mean anomaly
198.3329°
Eccentric anomaly
198.20419°
Mean motion
3.51457 °/min
Orbital period
102.43 mins
BSTAR
0.00036035
Loading maneuver chart data...
Computing Atmospheric mass density...
Loading historical data...
Loading historical data...
Loading historical data...
Loading historical data...
Loading historical data...
Loading historical data...
Loading historical data...

Documentation

Showing up to 5 results
|